Location: Oshawa
(43.9000°N, 78.8670°W)
Time: 12:36:48
(UTC-05:00)

Explorer 7 - Visible Passes

Search period start: 18 January 2018 00:00
Search period end: 28 January 2018 00:00
Orbit: 486 x 682 km, 50.3° (Epoch: 18 January)

Date Brightness Start Highest point End Pass type
(mag) Time Alt. Az. Time Alt. Az. Time Alt. Az.
18 Jan 7.0 17:54:38 10° WNW 17:58:25 45° NNE 18:01:43 12° E visible
18 Jan 8.0 19:35:18 10° WNW 19:38:06 37° WSW 19:38:06 37° WSW visible
19 Jan 6.7 18:00:11 10° WNW 18:04:04 61° NNE 18:07:38 11° ESE visible
19 Jan 8.5 19:41:06 10° W 19:44:02 26° SW 19:44:02 26° SW visible
20 Jan 6.6 18:05:43 10° WNW 18:09:38 89° NNE 18:13:25 10° ESE visible
20 Jan 9.1 19:47:14 10° W 19:49:41 16° SW 19:50:10 16° SW visible
21 Jan 7.2 18:11:18 10° WNW 18:15:10 59° SSW 18:18:52 10° SE visible
22 Jan 8.2 18:17:00 10° WNW 18:20:36 36° SW 18:24:05 10° SSE visible
23 Jan 9.1 18:22:53 10° W 18:25:58 22° SW 18:28:57 10° S visible
24 Jan 9.7 18:29:16 10° W 18:31:15 14° SW 18:33:11 10° SSW visible
